This demonstration page uses our WeatherBlox Daily Observations layout. Learn more.

Left ArrowRight Arrow

Hourly Observations for April 22, 2021

Temp ( °F °C ) Dew Point ( °F °C ) Humidity (%) Winds ( mph kmh ) Pressure ( in mb ) Visibility ( mi km ) Precip ( " mm )
12:53 am 00:53 Clear 41 5 27 -2.8 57 57 Calm 30.19 1023 10 16 0.00 0.00
1:53 am 01:53 Clear 38 3.3 29 -1.7 70 70 Calm 30.19 1022 10 16 0.00 0.00
2:53 am 02:53 Clear 37 2.8 29 -1.7 73 73 NW 3 6 30.19 1022 10 16 0.00 0.00
3:53 am 03:53 Clear 35 1.7 28 -2.2 76 76 Calm 30.19 1022 10 16 0.00 0.00
4:53 am 04:53 Clear 34 1.1 29 -1.7 82 82 Calm 30.19 1022 10 16 0.00 0.00
5:53 am 05:53 Clear 34 1.1 28 -2.2 79 79 Calm 30.19 1023 10 16 0.00 0.00
6:53 am 06:53 Clear 33 0.6 30 -1.1 89 89 Calm 30.20 1023 10 16 0.00 0.00
7:53 am 07:53 Sunny 35 1.7 31 -0.6 85 85 Calm 30.22 1024 10 16 0.00 0.00
8:53 am 08:53 Sunny 42 5.6 30 -1.1 62 62 Calm 30.25 1024 10 16 0.00 0.00
9:53 am 09:53 Sunny 50 10 25 -3.9 38 38 NNE 8 13 30.25 1025 10 16 0.00 0.00
10:53 am 10:53 Sunny 52 11.1 21 -6.1 30 30 Calm 30.26 1025 10 16 0.00 0.00
11:53 am 11:53 Sunny 54 12.2 20 -6.7 26 26 NNW 5 7 30.24 1024 10 16 0.00 0.00
12:53 pm 12:53 Sunny 57 13.9 21 -6.1 25 25 N 8 13 30.23 1024 10 16 0.00 0.00
1:53 pm 13:53 Sunny 59 15 23 -5 25 25 undefined N/A 30.21 1023 10 16 0.00 0.00
2:53 pm 14:53 Sunny 60 15.6 23 -5 24 24 undefined N/A 30.18 1022 10 16 0.00 0.00
3:53 pm 15:53 Sunny 61 16.1 24 -4.4 24 24 WNW 13 20 30.16 1022 10 16 0.00 0.00
4:53 pm 16:53 Sunny 62 16.7 24 -4.4 23 23 NW 8 13 30.15 1021 10 16 0.00 0.00
5:53 pm 17:53 Sunny 62 16.7 24 -4.4 23 23 W 12 19 30.14 1021 10 16 0.00 0.00
6:53 pm 18:53 Sunny 61 16.1 26 -3.3 26 26 WNW 8 13 30.13 1020 10 16 0.00 0.00
7:53 pm 19:53 Sunny 59 15 27 -2.8 29 29 Calm 30.12 1020 10 16 0.00 0.00
8:53 pm 20:53 Clear 52 11.1 34 1.1 50 50 Calm 30.14 1021 10 16 0.00 0.00
9:53 pm 21:53 Clear 49 9.4 36 2.2 61 61 Calm 30.16 1022 10 16 0.00 0.00
10:53 pm 22:53 Clear 46 7.8 36 2.2 68 68 NE 3 6 30.16 1021 10 16 0.00 0.00
11:53 pm 23:53 Clear 44 6.7 37 2.8 76 76 Calm 30.17 1022 10 16 0.00 0.00

Powered by AerisWeather